Retour au catalogue

SL-14 DEB

ActifPO
NORAD 45654·DEBRIS·🇷🇺 Russia

Lancé Aug 15, 1991 depuis Plesetsk Cosmodrome

Loading…

Prochains Passages (prochaines 24 heures)

TLE

FraisSource: Space-Track

Époque: Sep 13, 2026, 10:24 UTC

1 45654U 91056CY  26256.43343634  .00000421  00000-0  95777-3 0  9991
2 45654  82.5707  65.4047 0029322 170.5672 189.6011 13.23865526316251

Suivez SL-14 DEB en temps réel avec AllMySat

Download on the App Store